User: anonymous   Login
Location: Unspecified
(0.0000°N, 0.0000°E)
Time: 00:21:53
(UTC+00:00)
Language:

Oscar 14 - Orbit

View from above orbital plane
View from above orbital plane
View from above satellite
View from above satellite

Ground track
Ground track

The orbit data is extracted from the following two-line orbital elements,

1 20437U 90005B   24176.59494513  .00000151  00000-0  72330-4 0  9996
2 20437  98.8900 199.0382 0009813 216.8690 255.7318 14.32815359798092
Epoch (UTC): 24 June 2024 14:16:43
Eccentricity: 0.0009813
inclination: 98.8900°
perigee height: 775 km
apogee height: 789 km
right ascension of ascending node: 199.0382°
argument of perigee: 216.8690°
revolutions per day: 14.32815359
mean anomaly at epoch: 255.7318°
orbit number at epoch: 79809

The dashed part of the orbit path shows where the satellite is in the earth's shadow,  

DLR